Location: Sungai Igah
(2.7333°N, 114.2500°E)
Time: 11:12:23
(UTC+00:00)

Ariane 44LP R/B - Pass Details

Date: 14 June 2021
Orbit: 493 x 17817 km, 3.6° (Epoch: 04 August)

Event Time Altitude Azimuth Distance (km) Brightness Sun altitude
Exits shadow 20:51:00 39° 228° (SW) 1,127 4.4 -20.0°
Maximum altitude 20:52:23 54° 175° (S) 1,084 4.6 -19.6°
Drops below altitude 10° 21:03:03 10° 100° (E) 5,305 9.1 -17.2°
Sets 21:11:41 0° 96° (E) 8,605 10.4 -15.3°
